BREEZE-M R/B, 40259

Orbit data source: Space-Track

BREEZE-M R/B, 40259 is space debris in GEO originally from a launch on Sat, 27 Sep 2014 UTC launched from the Tyuratam Missile And Space Complex (TTMTR). Debris objects in space refer to the collection of defunct objects orbiting the Earth. Examples of debris include non-operational satellites, rocket bodies, and fragments generated from explosions, collisions, or faulty payload assembly.

Loading next visibility...
Identifier
40259, 2014-058B
Orbit
GEO
Last TLE update
2 days ago
Origin
Manufacturer
Khrunichev
Mission
Spacecraft
Bus & Motor
BRIZ, Unknown motor
Mass
~1,600 kg wet, 1,600 kg dry
Launch date (UTC)
2014-09-27 (11 years ago)
Launch vehicle
Unknown
Launch site
Tyuratam Missile And Space Complex (TTMTR)
Object type
Payload
Rocket body
Debris
Shape & HBR
Cyl, 4 m
Radar Cross Section
14.451 m², Large (>1 m²)

Expand to show TLE details & history

TLE from 2 days ago
0 BREEZE-M R/B
1 40259U 14058B   25180.40633781 -.00000206  00000-0  00000-0 0  9995
2 40259   9.5609  63.0176 0639878 190.8334 167.6351  0.91687575 35996
Epoch: 2025-06-29T09:45Z
TLE epoch observation values (Epoch: 2025-06-29T09:45:07.586Z)
Latitude
0.00002°
Longitude
-1.0267°
Altitude
41,189.603 km
Speed
2.802 km/s
True Right ascension
04h 11m 56s
True Declination
0° 00' 00"
Sunlit
Object was in daylight at epoch
Visualization orbit readout
Latitude
-8.79589°
Longitude
-67.32876°
Altitude
38,814.456 km
Speed
2.955 km/s
Apparent Right ascension
00h 07m 15s
Apparent Declination
-14° 45' 47"
Sunlit
Object is in daylight
Visualization observer readout
Local Sidereal Time
20:28:41
Azimuth
125.112° SE
Elevation
15.407°
Doppler factor
1
Orbital elements
Apogee altitude
41,243.864 km
Perigee altitude
35,515.928 km
Semi-major axis
44,758.033 km
Eccentricity
0.06399
Inclination
9.5609°
RAAN
63.0176°
Arg. of periapsis
190.8334°
True anomaly
Unknown
Mean anomaly
167.6351°
Eccentric anomaly
Unknown
Mean motion
0.22921 °/min
Orbital period
1,570.6 mins
BSTAR
0
Loading historical data...
40259 neighbors
Loading maneuver chart data...
Loading SW <> Apogee altitude chart data...
Loading historical data...
Loading historical data...
Loading historical data...
Loading historical data...
Loading historical data...
Loading historical data...
Loading historical data...
Other satellites on launch #58 in the year 2014 (2014-09-27 UTC)

BREEZE-M R/B Visibility forecast

Observer location: undefined°, undefined°

Span
Click to sort rows by Start time (UTC) header in descending order
Start Az.
Max El. time (UTC)
Max El. Az.
Max El.
End time (UTC)
End Az.
1440 mins2025-07-01 08:50:30.422Z125.124° SE2025-07-01 22:02:30.422Z147.756° SSE37.633°2025-07-02 08:50:30.422Z157.482° SSE
|